Погода в Новой Чернушке

Россия / Удмуртская Республика     57°01′49″N   53°04′51″E
темп.,
°C
ветер,
м/с
пор.,
м/с
влажн.,
%
обл.,
%
осадки,
мм/ч
давл.,
гПа
погр.,
м
28 сентября, вт
вт2801:00+2всв412715 0.0 1025571
04:00+1св411815 0.0 1026426
07:00+1св4128340 0.0 1027509
10:00+5всв596311 0.0 10271045
13:00+8всв5851100 0.0 10271464
16:00+8св465461 0.0 10271449
19:00+4с277399 0.0 1028181
22:00+3с277997 0.0 1029186
29 сентября, ср
ср2901:00+2ссв248423 0.0 102992
04:000с24925 0.0 103081
07:000с24935 0.0 103094
10:00+6ссв24635 0.0 1030625
13:00+8ссв23495 0.0 10291360
16:00+8с3448100 0.0 10281457
19:00+5с2270100 0.0 102940
22:00+5с1271100 0.0 102946
30 сентября, чт
чт3001:00+5с1275100 0.0 102947
04:00+4ссз1281100 0.0 102981
07:00+4сз1289100 0.0 1029100
10:00+6зсз2275100 0.0 1029410
13:00+9зсз345889 0.0 10281238
16:00+7зсз3578100 0.0 1027752
19:00+6зсз3789100 0.0 1027428
22:00+6зсз2793100 0.1 1026328
1 октября, пт
пт101:00+6зсз2695100 0.1 1026251
04:00+6сз2597100 0.1 1026176
07:00+6ссз269585 0.0 1027186
10:00+8ссз2486100 0.1 1028311
13:00+10с1375100 0.0 1028586
16:00+9с0080100 0.0 102816
19:00+8ссз1287100 0.0 102964
22:00+8ссз1392100 0.0 1029100
2 октября, сб
сб201:00+7ссз1294100 0.0 102966
04:00+7сз1393100 0.0 103098
07:00+7сз1392100 0.0 1030105
10:00+9сз1383100 0.0 1031288
13:00+10сз2373100 0.0 1031613
16:00+11зсз236712 0.0 1031821
19:00+9зюз1174100 0.0 103126
22:00+9зсз2371100 0.0 103266